ELYUSIUM/LOWER FREE FLYE

Satellite information

Favourite Embed

Satellite Type and Status

PAYLOADDECAYED

Key statistics

Satellite ELYUSIUM/LOWER FREE FLYE at a glance.

Uptime

2195

Days in orbit

Revolutions

≈ 15.2

Per day

Orbit

SSO

Sun Synchronous Orbit

Inclination

97.5

Latest

Satellite identification and parameters

Extended collection of information and parameters for ELYUSIUM/LOWER FREE FLYE.

Object identification

Identified? True

Debris? False

Object name: ELYUSIUM/LOWER FREE FLYE

International designator: 2018-099C

Object number (NORAD): 43760

Object ID (CCSDS): 43760

Country: UNITED STATES OF AMERICA (US)

Current information (Y/N): Y

RCS size: LARGE

Orbital parameters

Decay date: Dec. 6, 2024

Period: 94.968 minutes

Inclination: 97.5349 deg

SMA: 6895.176 km

Apoapsis: 522.035 km

Periapsis: 512.046 km

RAAN: 110.5437 deg

Eccentricy: 0.0007243

Argument of periapsis: 3.4209 deg

Mean anomaly: 356.7072 deg

Mean motion: 15.16298721 rev/day

Mean motion (dot): 0.00036594 rev/day2

B* drag term: 0.0018836 1/REarth

Two-line elements (TLE)

Creation date: Feb. 12, 2024, 3:07 a.m.

Reference frame: TEME

Reference center: EARTH

Epoch: Feb. 11, 2024, 6:05 p.m. UTC

TLE line 0: 0 ELYUSIUM/LOWER FREE FLYE

TLE line 1: 1 43760U 18099C 24042.75387682 .00036594 00000-0 18836-2 0 9990

TLE line 2: 2 43760 97.5349 110.5437 0007243 3.4209 356.7072 15.16298721284022

Live tracking on map

Satellite ELYUSIUM/LOWER FREE FLYE has decayed and is no longer in orbit. No tracking available.

In-orbit conjunctions

Satellite ELYUSIUM/LOWER FREE FLYE has decayed and is no longer in orbit. No conjunctions available.

Associated space launch

Dedicated rideshare launching payloads into sun-synchronous orbit. Payloads include ORS-6, EU:CROPIS, STPSat-5, BlackSky Global-1 to -4, HawkEye Pathfinder 1-3, Iceye, NEXTSat-1, 2 SkySats, Centauri II, and a Flock of Doves.

ELYUSIUM/LOWER FREE FLYE was lifted into orbit during the mission ‘Falcon 9 Block 5 | Spaceflight SSO-A’, on board a Falcon 9 space rocket.

The launch took place on Dec. 3, 2018, 6:34 p.m. from Space Launch Complex 4E.

For more information about the launch, click the button.

Launch to space Falcon 9 Block 5 | Spaceflight SSO-A
Falcon 9 Block 5 | Spaceflight SSO-A

Agency: N/A

Status: Launch Successful

Launch date: Dec. 3, 2018, 6:34 p.m. UTC

Rocket: Falcon 9

Launch pad: Space Launch Complex 4E

Location: Vandenberg SFB, CA, USA

...

Latest news about this satellite

There are no fresh news available about this satellite. Check back as we update our databases every day.


Newsletter sign-up

Weekly statistics, charts and insights to help you stay on top of the space industry.